When you browse on this site, cookies collect data to enhance your experience and personalize the content and advertising you see.
Visit our Privacy Policy to learn more. By continuing to use the site, you agree to this use of cookies and data.
  • In Romania
  • List of Countries
  • For 7 days
  • Water Temperature
  • Weather Map
  • Weather Widgets
  • user-avatar
    Login

    Hourly Weather Uige

    Today, 22 January, Wednesday

    Time Temperature Precipitation Wind Pressure Humidity
    00:00 +20°C° 1.1 mm 0 mps 691 mmHg 97%
    01:00 +20°C° 0 mm 0 mps 691 mmHg 98%
    02:00 +20°C° 0.2 mm 0 mps 690 mmHg 98%
    03:00 +20°C° 0.2 mm 0 mps 690 mmHg 98%
    04:00 +21°C° 0.2 mm 0 mps 690 mmHg 99%
    05:00 +21°C° 0 mm 0 mps 691 mmHg 98%
    06:00 +21°C° 0 mm 0 mps 691 mmHg 98%
    07:00 +21°C° 0 mm 0 mps 692 mmHg 98%
    08:00 +22°C° 0.2 mm 0 mps 692 mmHg 93%
    09:00 +26°C° 0.2 mm 1 mps 692 mmHg 87%
    10:00 +27°C° 0.2 mm 1 mps 693 mmHg 82%
    11:00 +27°C° 1.3 mm 1 mps 692 mmHg 85%
    12:00 +27°C° 1.3 mm 1 mps 692 mmHg 87%
    13:00 +27°C° 1.3 mm 2 mps 691 mmHg 90%
    14:00 +26°C° 1.3 mm 1 mps 691 mmHg 90%
    15:00 +26°C° 1.3 mm 1 mps 690 mmHg 89%
    16:00 +26°C° 1.3 mm 1 mps 689 mmHg 89%
    17:00 +25°C° 0.2 mm 1 mps 689 mmHg 92%
    18:00 +24°C° 0.2 mm 1 mps 690 mmHg 94%
    19:00 +23°C° 0.2 mm 1 mps 690 mmHg 96%
    20:00 +23°C° 0 mm 1 mps 690 mmHg 96%
    21:00 +22°C° 0 mm 1 mps 691 mmHg 96%
    22:00 +22°C° 0 mm 1 mps 691 mmHg 96%
    23:00 +22°C° 0 mm 1 mps 691 mmHg 96%

    Tomorrow, 23 January, Thursday

    Time Temperature Precipitation Wind Pressure Humidity
    00:00 +22°C° 0 mm 1 mps 690 mmHg 96%
    01:00 +21°C° 0 mm 1 mps 690 mmHg 96%
    02:00 +21°C° 0 mm 1 mps 690 mmHg 96%
    03:00 +21°C° 0 mm 1 mps 690 mmHg 96%
    04:00 +19°C° 0 mm 0 mps 690 mmHg 96%
    05:00 +19°C° 0 mm 0 mps 690 mmHg 95%
    06:00 +19°C° 0 mm 0 mps 690 mmHg 95%
    07:00 +20°C° 0 mm 0 mps 691 mmHg 94%
    08:00 +21°C° 0 mm 0 mps 691 mmHg 87%
    09:00 +23°C° 0 mm 0 mps 692 mmHg 81%
    10:00 +25°C° 0 mm 0 mps 692 mmHg 74%
    11:00 +28°C° 0 mm 1 mps 692 mmHg 68%
    12:00 +29°C° 0 mm 1 mps 691 mmHg 61%
    13:00 +31°C° 0 mm 2 mps 691 mmHg 54%
    14:00 +30°C° 0.6 mm 2 mps 690 mmHg 64%
    15:00 +28°C° 0.6 mm 2 mps 689 mmHg 75%
    16:00 +27°C° 0.6 mm 2 mps 689 mmHg 85%
    17:00 +26°C° 0.7 mm 2 mps 689 mmHg 88%
    18:00 +24°C° 0.7 mm 1 mps 689 mmHg 92%
    19:00 +23°C° 0.7 mm 1 mps 690 mmHg 95%
    20:00 +23°C° 0.1 mm 1 mps 690 mmHg 95%
    21:00 +20°C° 0.1 mm 0 mps 691 mmHg 95%
    22:00 +20°C° 0.1 mm 0 mps 691 mmHg 96%
    23:00 +20°C° 0 mm 0 mps 691 mmHg 96%

    Day after tomorrow, 24 January, Friday

    Time Temperature Precipitation Wind Pressure Humidity
    00:00 +19°C° 0 mm 0 mps 690 mmHg 97%
    01:00 +19°C° 0 mm 0 mps 690 mmHg 98%
    02:00 +19°C° 0 mm 0 mps 690 mmHg 97%
    03:00 +19°C° 0 mm 0 mps 690 mmHg 97%
    04:00 +19°C° 0 mm 0 mps 690 mmHg 97%
    05:00 +20°C° 0 mm 0 mps 690 mmHg 96%
    06:00 +20°C° 0 mm 0 mps 691 mmHg 96%
    07:00 +20°C° 0 mm 0 mps 691 mmHg 95%
    08:00 +21°C° 0 mm 0 mps 691 mmHg 92%
    09:00 +24°C° 0 mm 1 mps 692 mmHg 89%
    10:00 +24°C° 0 mm 1 mps 692 mmHg 86%
    11:00 +26°C° 0.1 mm 1 mps 692 mmHg 79%
    12:00 +27°C° 0.1 mm 1 mps 691 mmHg 72%
    13:00 +29°C° 0.1 mm 1 mps 691 mmHg 66%
    14:00 +28°C° 0.9 mm 1 mps 690 mmHg 73%
    15:00 +27°C° 0.9 mm 1 mps 690 mmHg 79%
    16:00 +27°C° 0.9 mm 2 mps 689 mmHg 86%
    17:00 +25°C° 0.8 mm 1 mps 690 mmHg 90%
    18:00 +24°C° 0.8 mm 1 mps 690 mmHg 93%
    19:00 +21°C° 0.8 mm 0 mps 690 mmHg 96%
    20:00 +22°C° 0.1 mm 1 mps 690 mmHg 97%
    21:00 +22°C° 0.1 mm 1 mps 691 mmHg 97%
    22:00 +22°C° 0.1 mm 1 mps 691 mmHg 97%
    23:00 +21°C° 0 mm 1 mps 691 mmHg 97%

    25 January, Saturday

    Time Temperature Precipitation Wind Pressure Humidity
    00:00 +21°C° 0 mm 1 mps 691 mmHg 97%
    01:00 +21°C° 0 mm 1 mps 691 mmHg 97%
    02:00 +21°C° 0 mm 1 mps 691 mmHg 97%
    03:00 +21°C° 0 mm 1 mps 690 mmHg 97%
    04:00 +21°C° 0 mm 1 mps 690 mmHg 97%
    05:00 +21°C° 0 mm 1 mps 690 mmHg 97%
    06:00 +22°C° 0 mm 1 mps 691 mmHg 97%
    07:00 +22°C° 0 mm 1 mps 691 mmHg 96%
    08:00 +22°C° 0 mm 1 mps 691 mmHg 94%
    09:00 +23°C° 0 mm 1 mps 692 mmHg 92%
    10:00 +24°C° 0 mm 1 mps 692 mmHg 90%
    11:00 +26°C° 0 mm 1 mps 692 mmHg 80%
    12:00 +28°C° 0 mm 1 mps 691 mmHg 70%
    13:00 +29°C° 0 mm 1 mps 691 mmHg 59%
    14:00 +29°C° 0 mm 2 mps 691 mmHg 60%
    15:00 +29°C° 0 mm 2 mps 690 mmHg 60%
    16:00 +29°C° 0 mm 2 mps 689 mmHg 61%
    17:00 +27°C° 0.1 mm 1 mps 690 mmHg 69%
    18:00 +25°C° 0.1 mm 1 mps 690 mmHg 78%
    19:00 +23°C° 0.1 mm 1 mps 690 mmHg 87%
    20:00 +23°C° 0 mm 1 mps 690 mmHg 89%
    21:00 +22°C° 0 mm 1 mps 691 mmHg 92%
    22:00 +21°C° 0 mm 1 mps 691 mmHg 94%
    23:00 +21°C° 0 mm 1 mps 691 mmHg 95%

    26 January, Sunday

    Time Temperature Precipitation Wind Pressure Humidity
    00:00 +21°C° 0 mm 1 mps 691 mmHg 96%
    01:00 +20°C° 0 mm 1 mps 691 mmHg 97%
    02:00 +21°C° 0 mm 1 mps 691 mmHg 97%
    03:00 +21°C° 0 mm 1 mps 690 mmHg 97%
    04:00 +21°C° 0 mm 1 mps 690 mmHg 97%
    05:00 +21°C° 0 mm 1 mps 691 mmHg 96%
    06:00 +22°C° 0 mm 1 mps 691 mmHg 95%
    07:00 +22°C° 0 mm 1 mps 691 mmHg 93%
    08:00 +25°C° 0 mm 1 mps 692 mmHg 82%
    09:00 +27°C° 0 mm 1 mps 692 mmHg 70%
    10:00 +30°C° 0 mm 1 mps 693 mmHg 59%
    11:00 +31°C° 0 mm 1 mps 692 mmHg 55%
    12:00 +31°C° 0 mm 1 mps 692 mmHg 52%
    13:00 +32°C° 0 mm 2 mps 691 mmHg 49%
    14:00 +31°C° 0.1 mm 2 mps 691 mmHg 54%
    15:00 +31°C° 0.1 mm 2 mps 690 mmHg 58%
    16:00 +30°C° 0.1 mm 2 mps 689 mmHg 63%
    17:00 +28°C° 0.4 mm 2 mps 689 mmHg 73%
    18:00 +26°C° 0.4 mm 2 mps 690 mmHg 82%
    19:00 +23°C° 0.4 mm 1 mps 690 mmHg 92%
    20:00 +23°C° 0.2 mm 1 mps 691 mmHg 94%
    21:00 +23°C° 0.2 mm 1 mps 691 mmHg 96%
    22:00 +22°C° 0.2 mm 1 mps 692 mmHg 98%
    23:00 +22°C° 0 mm 1 mps 692 mmHg 98%

    27 January, Monday

    Time Temperature Precipitation Wind Pressure Humidity
    00:00 +22°C° 0 mm 1 mps 692 mmHg 98%
    01:00 +22°C° 0 mm 1 mps 691 mmHg 98%
    02:00 +22°C° 0 mm 1 mps 691 mmHg 98%
    03:00 +22°C° 0 mm 1 mps 691 mmHg 97%
    04:00 +19°C° 0 mm 0 mps 691 mmHg 97%
    05:00 +21°C° 0 mm 1 mps 691 mmHg 96%
    06:00 +21°C° 0 mm 1 mps 691 mmHg 96%
    07:00 +21°C° 0 mm 1 mps 691 mmHg 95%
    08:00 +24°C° 0 mm 1 mps 692 mmHg 83%
    09:00 +27°C° 0 mm 1 mps 693 mmHg 70%
    10:00 +29°C° 0 mm 1 mps 693 mmHg 57%
    11:00 +30°C° 0 mm 1 mps 693 mmHg 54%
    12:00 +31°C° 0 mm 2 mps 692 mmHg 51%
    13:00 +31°C° 0 mm 2 mps 691 mmHg 48%
    14:00 +31°C° 0 mm 2 mps 691 mmHg 51%
    15:00 +30°C° 0 mm 2 mps 690 mmHg 55%
    16:00 +30°C° 0 mm 3 mps 690 mmHg 58%
    17:00 +28°C° 0 mm 2 mps 690 mmHg 67%
    18:00 +26°C° 0 mm 2 mps 690 mmHg 75%
    19:00 +24°C° 0 mm 1 mps 690 mmHg 84%
    20:00 +23°C° 0 mm 1 mps 690 mmHg 86%
    21:00 +22°C° 0 mm 1 mps 691 mmHg 88%
    22:00 +22°C° 0 mm 1 mps 691 mmHg 90%
    23:00 +21°C° 0 mm 1 mps 691 mmHg 93%
    Show more